This is the latest recevied weather packets stored in our database for station/object NW5W-12. If no packets are shown the sender has not sent any weather packets the latest 10 day(s).
| Time | Temp. | Humidity | Pressure | Rain* | Wind** | Luminosity | Snow |
|---|---|---|---|---|---|---|---|
| 1788134940 | 20.56° C | 51% | 1019.6 hPa | 1.02 mm | - | - | - |
| 1788134640 | 20.56° C | 51% | 1019.5 hPa | 1.02 mm | - | - | - |
| 1788134340 | 20.56° C | 51% | 1019.5 hPa | 1.02 mm | - | - | - |
| 1788134039 | 20.56° C | 51% | 1019.4 hPa | 1.02 mm | - | - | - |
| 1788133740 | 20.56° C | 50% | 1019.5 hPa | 1.02 mm | - | - | - |
| 1788133439 | 20.56° C | 55% | 1019.5 hPa | 1.02 mm | - | - | - |
| 1788133140 | 20.56° C | 55% | 1019.5 hPa | 1.02 mm | - | - | - |
| 1788132840 | 21.11° C | 50% | 1019.6 hPa | 1.02 mm | - | - | - |
| 1788132540 | 21.11° C | 50% | 1019.8 hPa | 1.02 mm | - | - | - |
| 1788132257 | 21.11° C | 51% | 1019.7 hPa | 1.02 mm | - | - | - |
| 1788131939 | 21.11° C | 51% | 1019.7 hPa | 1.02 mm | - | - | - |
| 1788131640 | 21.11° C | 53% | 1019.8 hPa | 1.02 mm | - | - | - |
| 1788131340 | 20.56° C | 53% | 1019.8 hPa | 1.02 mm | - | - | - |
| 1788131040 | 21.11° C | 53% | 1019.8 hPa | 1.02 mm | - | - | - |
| 1788130740 | 21.11° C | 52% | 1019.7 hPa | 1.02 mm | - | - | - |
| 1788130440 | 21.11° C | 52% | 1019.8 hPa | 1.02 mm | - | - | - |
| 1788130140 | 21.11° C | 51% | 1019.8 hPa | 1.02 mm | - | - | - |
| 1788129839 | 21.67° C | 50% | 1019.7 hPa | 1.02 mm | - | - | - |
| 1788129540 | 21.11° C | 53% | 1019.8 hPa | 1.02 mm | - | - | - |
| 1788129240 | 21.11° C | 52% | 1019.8 hPa | 1.02 mm | - | - | - |
| 1788128939 | 20.56° C | 53% | 1019.7 hPa | 1.02 mm | - | - | - |
| 1788128639 | 20° C | 55% | 1019.8 hPa | 1.02 mm | - | - | - |
| 1788128340 | 20° C | 55% | 1019.9 hPa | 1.02 mm | - | - | - |
| 1788128040 | 20° C | 53% | 1020 hPa | 1.02 mm | - | - | - |
| 1788127740 | 20.56° C | 54% | 1020 hPa | 1.02 mm | - | - | - |
* Rain since midnight (hover to see other rain measurements)
** Current wind speed in m/s (hover to see current wind gust speed)